Date String (YYYY-MM-DD hh:mm:ss) UTC,Instrument flags,Ambient pressure (hPa),Sample flow (lpm),Bypass flow (lpm),Sample temperature (°C),Ambient temperature (°C),ASC tube jacket temperature (°C),LED temperature (°C),Box temperature (°C),Sample RH (%),Span deviation,Mass concentration (μg/m³),Mass concentration (μg/m³),Mass concentration (μg/m³)
DateTimeUTC,F1_M11,P_M11,Q1_M11,Q2_M11,T1_M11,T2_M11,T3_M11,T4_M11,T5_M11,U1_M11,ZSPAN_M11,X0_M11,X2_M11,X1_M11
2022-02-17 04:00:00,,0826.5,5.00,0.00,22.3,21.2,00.0,31.3,24.0,11.6,0000.0,0002.05,0001.55,0001.45
2022-02-17 04:01:00,,0826.5,5.01,0.00,22.3,21.2,00.0,31.3,24.0,11.6,0000.0,0001.99,0001.54,0001.45
2022-02-17 04:02:00,,0826.6,4.99,0.00,22.3,21.2,00.0,31.3,23.9,11.6,0000.0,0002.02,0001.56,0001.47
2022-02-17 04:03:00,,0826.5,4.99,0.00,22.2,21.4,00.0,31.3,23.9,11.6,0000.0,0002.03,0001.58,0001.48
2022-02-17 04:04:00,,0826.5,5.00,0.00,22.3,22.0,00.0,31.3,24.1,11.6,0000.0,0002.06,0001.59,0001.50
2022-02-17 04:05:00,,0826.6,5.02,0.00,22.4,22.9,00.0,31.3,24.3,11.5,0000.0,0002.09,0001.61,0001.50
2022-02-17 04:06:00,,0826.6,4.99,0.00,22.6,23.2,00.0,31.4,24.5,11.4,0000.0,0002.12,0001.63,0001.52
2022-02-17 04:07:00,,0826.6,5.01,0.00,22.6,22.9,00.0,31.4,24.5,11.4,0000.0,0002.07,0001.63,0001.52
2022-02-17 04:08:00,,0826.6,5.00,0.00,22.6,22.6,00.0,31.4,24.5,11.4,0000.0,0002.02,0001.64,0001.53
2022-02-17 04:09:00,,0826.6,4.99,0.00,22.6,22.3,00.0,31.4,24.4,11.4,0000.0,0002.08,0001.67,0001.53
2022-02-17 04:10:00,,0826.6,5.00,0.00,22.6,22.0,00.0,31.4,24.3,11.4,0000.0,0002.36,0001.71,0001.53
2022-02-17 04:11:00,,0826.6,5.00,0.00,22.5,21.9,00.0,31.4,24.3,11.5,0000.0,0002.42,0001.71,0001.52
2022-02-17 04:12:00,,0826.6,4.99,0.00,22.5,21.8,00.0,31.4,24.2,11.5,0000.0,0002.48,0001.73,0001.54
2022-02-17 04:13:00,,0826.7,5.02,0.00,22.5,21.8,00.0,31.4,24.2,11.5,0000.0,0002.50,0001.74,0001.53
2022-02-17 04:14:00,,0826.7,5.00,0.00,22.4,21.7,00.0,31.4,24.1,11.5,0000.0,0002.50,0001.73,0001.55
2022-02-17 04:15:00,,0826.7,5.00,0.00,22.4,21.6,00.0,31.4,24.1,11.5,0000.0,0002.50,0001.74,0001.56
2022-02-17 04:16:00,,0826.7,5.01,0.00,22.4,21.6,00.0,31.4,24.0,11.6,0000.0,0002.57,0001.77,0001.56
2022-02-17 04:17:00,,0826.7,5.00,0.00,22.4,21.5,00.0,31.4,24.0,11.6,0000.0,0002.54,0001.75,0001.56
2022-02-17 04:18:00,,0826.8,4.99,0.00,22.3,21.5,00.0,31.4,24.0,11.6,0000.0,0002.51,0001.74,0001.56
2022-02-17 04:19:00,,0826.8,5.01,0.00,22.3,21.5,00.0,31.3,23.9,11.6,0000.0,0002.58,0001.74,0001.56
2022-02-17 04:20:00,,0826.9,5.00,0.00,22.3,21.4,00.0,31.3,23.9,11.6,0000.0,0002.56,0001.71,0001.55
2022-02-17 04:21:00,,0827.0,4.99,0.00,22.2,21.3,00.0,31.3,23.9,11.7,0000.0,0002.31,0001.68,0001.56
2022-02-17 04:22:00,,0827.1,5.02,0.00,22.2,21.3,00.0,31.3,23.9,11.7,0000.0,0002.16,0001.66,0001.55
2022-02-17 04:23:00,,0826.8,4.98,0.00,22.2,21.3,00.0,31.3,23.9,11.7,0000.0,0002.16,0001.65,0001.54
2022-02-17 04:24:00,,0826.9,5.00,0.00,22.2,21.3,00.0,31.3,23.8,11.7,0000.0,0002.19,0001.66,0001.54
2022-02-17 04:25:00,,0826.9,5.02,0.00,22.2,21.3,00.0,31.2,23.8,11.7,0000.0,0002.19,0001.67,0001.53
2022-02-17 04:26:00,,0826.9,5.00,0.00,22.1,21.2,00.0,31.2,23.8,11.7,0000.0,0002.24,0001.67,0001.52
2022-02-17 04:27:00,,0826.9,5.00,0.00,22.1,21.3,00.0,31.2,23.8,11.7,0000.0,0002.19,0001.65,0001.52
2022-02-17 04:28:00,,0827.0,5.00,0.00,22.2,21.9,00.0,31.3,24.0,11.7,0000.0,0002.38,0001.68,0001.54
2022-02-17 04:29:00,,0827.0,4.99,0.00,22.3,22.7,00.0,31.3,24.2,11.6,0000.0,0002.42,0001.70,0001.55
2022-02-17 04:30:00,,0827.0,5.02,0.00,22.5,23.1,00.0,31.3,24.4,11.5,0000.0,0002.39,0001.72,0001.57
2022-02-17 04:31:00,,0827.0,4.99,0.00,22.5,22.8,00.0,31.3,24.5,11.5,0000.0,0002.45,0001.76,0001.60
2022-02-17 04:32:00,,0827.0,5.01,0.00,22.5,22.6,00.0,31.4,24.4,11.4,0000.0,0002.45,0001.80,0001.63
2022-02-17 04:33:00,,0827.0,5.00,0.00,22.5,22.4,00.0,31.4,24.3,11.4,0000.0,0002.53,0001.84,0001.66
2022-02-17 04:34:00,,0827.0,5.00,0.00,22.5,22.2,00.0,31.4,24.3,11.5,0000.0,0002.70,0001.89,0001.69
2022-02-17 04:35:00,,0827.1,4.99,0.00,22.5,22.0,00.0,31.4,24.2,11.5,0000.0,0002.95,0001.93,0001.74
2022-02-17 04:36:00,,0827.1,5.00,0.00,22.4,21.9,00.0,31.4,24.1,11.5,0000.0,0002.95,0001.94,0001.76
2022-02-17 04:37:00,,0827.1,5.01,0.00,22.4,21.8,00.0,31.4,24.1,11.5,0000.0,0002.97,0001.95,0001.78
2022-02-17 04:38:00,,0827.1,5.00,0.00,22.4,21.7,00.0,31.4,24.1,11.5,0000.0,0003.04,0001.99,0001.81
2022-02-17 04:39:00,,0827.2,4.99,0.00,22.3,21.6,00.0,31.3,24.0,11.5,0000.0,0002.89,0001.98,0001.82
2022-02-17 04:40:00,,0827.1,5.02,0.00,22.3,21.5,00.0,31.3,24.0,11.6,0000.0,0002.93,0002.01,0001.84
2022-02-17 04:41:00,,0827.2,5.00,0.00,22.3,21.5,00.0,31.3,23.9,11.6,0000.0,0003.00,0002.05,0001.86
2022-02-17 04:42:00,,0827.2,4.99,0.00,22.2,21.4,00.0,31.3,23.9,11.6,0000.0,0003.03,0002.07,0001.87
2022-02-17 04:43:00,,0827.3,5.02,0.00,22.2,21.4,00.0,31.3,23.9,11.7,0000.0,0003.11,0002.10,0001.91
2022-02-17 04:44:00,,0827.8,4.99,0.00,22.2,21.3,00.0,31.3,23.8,11.7,0000.0,0004.71,0002.13,0001.92
2022-02-17 04:45:00,,0827.6,5.00,0.00,22.2,21.3,00.0,31.3,23.8,11.7,0000.0,0004.67,0002.15,0001.93
2022-02-17 04:46:00,,0827.3,5.00,0.00,22.1,21.3,00.0,31.2,23.8,11.7,0000.0,0004.44,0002.15,0001.94
2022-02-17 04:47:00,,0827.3,4.99,0.00,22.1,21.3,00.0,31.2,23.7,11.7,0000.0,0004.49,0002.18,0001.96
2022-02-17 04:48:00,,0827.3,5.00,0.00,22.1,21.7,00.0,31.2,23.8,11.6,0000.0,0004.46,0002.18,0001.97
2022-02-17 04:49:00,,0827.3,5.02,0.00,22.2,22.5,00.0,31.3,24.1,11.5,0000.0,0004.41,0002.18,0001.98
2022-02-17 04:50:00,,0827.3,4.99,0.00,22.4,23.0,00.0,31.3,24.3,11.4,0000.0,0004.46,0002.21,0002.00
2022-02-17 04:51:00,,0827.3,5.01,0.00,22.4,22.8,00.0,31.3,24.3,11.3,0000.0,0004.44,0002.22,0002.01
2022-02-17 04:52:00,,0827.3,5.01,0.00,22.4,22.5,00.0,31.3,24.2,11.3,0000.0,0004.43,0002.21,0002.01
2022-02-17 04:53:00,,0827.4,5.00,0.00,22.3,22.2,00.0,31.3,24.0,11.3,0000.0,0004.79,0002.21,0002.01
2022-02-17 04:54:00,,0827.4,5.00,0.00,22.3,22.0,00.0,31.3,23.9,11.3,0000.0,0005.22,0002.21,0002.00
2022-02-17 04:55:00,,0827.4,4.99,0.00,22.2,21.8,00.0,31.3,23.8,11.3,0000.0,0004.13,0002.18,0002.00
2022-02-17 04:56:00,,0827.4,4.99,0.00,22.2,21.6,00.0,31.2,23.8,11.4,0000.0,0003.40,0002.14,0001.99
2022-02-17 04:57:00,,0827.4,5.00,0.00,22.1,21.5,00.0,31.2,23.7,11.4,0000.0,0003.40,0002.12,0001.97
2022-02-17 04:58:00,,0827.4,5.01,0.00,22.0,21.3,00.0,31.2,23.6,11.4,0000.0,0003.38,0002.11,0001.96
2022-02-17 04:59:00,,0827.4,5.00,0.00,22.0,21.4,00.0,31.2,23.6,11.4,0000.0,0003.40,0002.12,0001.96
